Temp
9 9 9 9 9 9 9 9 9 9 9 10 9 9 9 9 9 9 10 9 9 9 11 12 13 13 14 15 16 17 17 16 16 14 15 22 25 25 25 25 25 23 23 23 23 23 22 23 23 23 24 25 25 26 25 25 25 25 25 24 23 24 24 24 25 25 24 23 23 23 24 24 24 24 24 25 25 24 24 24 24 25 25 25 24 23 23 22
9 9 9 9 9 9 9 9 9 9 9 9 9 10 9 9 9 9 9 9 9 10 11 12 13 13 13 14 15 15 16 15 14 14 20 26 26 25 25 25 24 23 23 23 23 24 23 23 23 24 25 25 25 26 26 26 25 25 25 24 24 25 24 24 24 24 24 23 23 23 24 25 25 24 25 25 24 24 24 24 24 24 24 24 24 23 23 23
9 9 9 9 9 9 9 9 9 9 9 9 9 9 9 9 9 9 9 9 10 10 11 12 13 13 13 14 14 15 14 13 17 21 25 27 26 26 25 25 24 24 24 24 23 24 25 24 24 25 25 25 25 25 25 25 25 25 25 25 26 26 25 25 25 25 24 24 24 24 25 25 25 25 25 25 24 25 24 24 24 24 23 23 23 24 23 23
9 9 9 9 9 9 9 9 9 9 9 9 9 9 9 9 9 10 10 10 10 10 11 12 12 12 13 13 14 15 13 16 24 26 25 25 27 27 25 25 24 24 24 24 24 24 25 24 24 25 26 26 26 26 25 26 26 25 25 26 27 26 25 25 25 25 24 24 24 24 25 24 25 25 25 25 25 25 24 25 25 24 24 23 23 24 23 23
9 9 10 10 10 9 9 9 9 9 9 9 9 9 9 10 11 11 11 11 11 11 12 12 11 12 13 13 14 13 14 22 27 25 24 25 26 26 25 24 24 24 24 24 24 24 25 25 25 25 26 26 25 26 26 26 26 25 26 27 27 27 26 25 25 25 24 24 24 24 25 25 25 25 25 25 26 25 25 25 25 25 24 24 24 24 24 24
9 10 12 12 11 10 9 9 9 9 9 9 9 10 11 12 13 13 13 13 13 13 12 11 10 11 13 14 14 13 17 25 25 24 25 25 26 26 24 24 23 23 23 24 24 24 25 25 25 26 26 26 26 26 27 26 26 26 27 27 27 27 25 25 26 25 25 25 25 25 25 25 25 25 25 25 25 25 25 25 25 25 25 24 24 24 24 24
10 11 12 13 12 11 10 10 9 9 9 9 10 12 14 14 14 13 14 14 14 14 12 10 10 11 13 14 14 15 19 24 24 24 25 25 26 26 24 24 23 23 23 24 24 24 25 25 25 26 26 26 26 26 27 27 26 26 27 27 27 26 25 25 26 26 26 25 25 25 25 25 25 25 25 25 24 24 25 25 25 25 25 25 24 24 24 24
10 11 13 13 13 12 11 11 11 10 10 11 13 15 15 15 15 14 15 15 15 15 13 12 12 12 14 14 16 18 21 23 24 23 25 25 25 25 24 23 22 23 24 24 25 25 25 25 26 26 26 26 26 26 27 27 26 26 26 27 27 25 25 26 26 26 25 25 25 25 25 25 25 25 25 24 24 24 25 25 25 25 25 25 24 24 24 24
12 13 14 14 14 13 12 12 12 12 12 13 15 16 16 16 16 16 16 16 16 15 14 13 13 14 14 14 16 22 23 23 23 23 23 24 24 24 24 23 22 23 24 24 24 25 25 25 26 26 27 27 26 27 27 27 27 27 27 27 27 25 25 25 25 25 25 24 25 25 24 24 25 25 25 24 24 24 25 25 25 25 24 24 24 24 24 25
13 14 15 14 14 14 14 13 14 14 14 15 16 17 17 17 17 17 17 17 16 15 14 13 13 14 14 14 18 23 24 23 23 23 22 24 24 24 24 24 23 23 24 23 24 25 25 26 26 26 27 27 26 27 27 27 28 27 27 27 26 25 25 25 24 24 24 24 25 25 24 24 24 25 25 24 24 25 25 25 24 25 24 24 25 24 25 25
14 15 15 15 14 14 14 14 15 15 15 16 16 17 17 17 17 17 18 17 17 15 14 12 13 14 13 15 20 24 23 23 23 22 22 24 24 23 23 24 23 24 24 23 24 25 25 26 26 26 27 27 26 27 27 27 28 28 27 26 24 24 24 24 24 23 24 24 24 24 24 24 24 25 26 24 24 25 25 25 24 25 25 25 25 24 25 25
15 15 16 15 15 15 15 15 16 16 16 16 17 17 18 18 18 17 18 18 17 15 13 11 12 13 13 16 20 23 24 23 23 22 22 23 23 23 23 23 23 24 24 24 24 25 26 26 26 27 27 26 27 27 27 27 28 28 28 26 24 24 24 23 23 22 24 24 24 24 24 24 24 25 25 24 24 25 25 25 25 25 25 25 25 25 25 25
15 15 16 16 16 16 16 16 16 16 16 17 17 17 18 18 18 18 18 18 17 15 13 12 13 13 14 19 22 23 24 23 23 22 22 23 23 23 23 23 23 24 25 25 25 25 25 25 26 27 26 27 27 27 28 27 28 28 27 26 25 25 24 22 22 22 24 24 23 23 23 23 24 24 24 24 24 25 25 25 25 25 25 25 25 25 25 25
15 16 16 16 16 16 16 16 16 16 17 18 18 18 18 18 18 18 17 17 17 16 14 13 13 13 15 21 23 23 23 23 24 23 23 23 23 22 23 23 23 24 25 25 25 25 25 25 26 26 26 27 27 27 28 27 28 28 27 27 26 24 23 23 22 23 24 23 22 23 22 23 24 23 23 24 25 25 25 25 25 25 25 25 25 25 25 25
16 16 16 16 17 17 17 17 17 17 18 18 19 19 19 19 18 17 17 17 16 16 14 13 13 14 17 21 23 23 23 24 24 24 24 24 24 23 22 22 23 24 25 25 24 24 24 25 26 27 27 27 27 28 28 27 27 28 25 24 25 24 23 23 23 23 24 22 22 22 22 23 24 23 23 24 25 25 25 25 25 25 25 25 25 25 25 25
16 16 16 17 17 17 18 17 18 18 18 19 19 19 19 18 18 17 17 16 16 15 14 14 13 14 18 22 23 24 24 24 25 24 24 24 24 23 22 22 23 23 24 24 24 24 24 25 26 26 27 27 27 28 28 26 25 27 26 23 24 24 23 24 23 23 24 23 22 22 23 23 24 23 23 24 25 25 25 25 25 25 25 25 25 25 25 25
17 17 17 17 17 18 18 18 18 19 19 19 19 19 18 18 17 17 16 15 15 14 14 14 13 14 20 24 24 24 24 24 24 24 23 23 24 24 23 23 23 23 24 24 24 25 25 25 26 26 26 26 27 27 26 23 22 25 26 24 24 25 24 23 23 23 23 23 23 22 23 24 24 24 23 23 24 25 25 25 25 25 25 25 25 25 25 25
17 17 17 17 18 18 19 19 19 19 19 19 19 19 18 18 16 16 15 14 14 14 14 14 14 17 22 24 24 23 23 24 24 24 23 23 23 24 24 23 23 23 24 24 25 25 25 25 26 26 26 26 26 27 24 22 24 24 24 24 24 25 25 24 24 24 23 23 24 23 23 24 23 24 23 23 23 24 25 26 25 25 25 25 25 25 26 26
17 18 18 18 18 19 19 19 19 19 19 18 19 18 18 17 16 15 13 14 16 18 19 18 18 21 23 23 23 23 24 24 24 23 23 23 24 24 24 23 23 24 24 25 25 25 25 25 25 25 25 26 27 27 26 25 26 26 25 25 24 24 25 26 26 25 24 24 25 25 24 24 24 24 24 23 23 23 25 25 25 25 25 25 25 25 26 26
18 18 18 18 18 19 19 19 19 19 19 18 18 18 18 18 18 18 15 15 17 20 22 21 20 21 22 22 23 23 24 24 24 24 23 23 24 25 24 24 24 24 24 25 24 25 26 25 24 25 25 26 27 27 27 27 27 27 27 26 25 25 24 27 27 25 25 25 25 26 25 24 24 24 24 23 23 23 24 25 24 25 25 25 25 26 26 26
18 18 19 19 19 19 20 20 19 20 19 18 18 19 20 20 21 21 19 19 19 19 20 20 20 21 22 22 22 23 24 24 24 24 23 24 25 25 24 24 24 24 24 24 24 25 25 24 25 26 26 26 26 26 26 27 28 28 27 26 25 25 25 27 27 26 26 26 25 26 26 25 25 25 24 24 23 23 23 24 24 25 25 25 25 26 26 26
18 19 19 19 20 20 20 20 20 19 20 19 18 20 21 21 21 21 20 21 20 19 18 19 19 20 21 21 21 22 23 24 25 23 23 24 25 25 24 24 25 24 23 24 25 24 24 24 26 26 25 25 25 25 26 27 28 28 27 26 25 25 25 25 26 26 27 26 26 26 26 26 26 25 25 24 24 23 23 23 24 25 25 25 25 26 26 26
18 19 19 20 20 20 20 20 20 19 20 20 19 20 21 21 21 20 20 21 21 20 20 20 20 21 22 22 21 22 23 25 25 24 24 24 24 24 25 25 24 24 24 24 25 24 23 24 26 25 24 25 25 25 26 27 27 28 27 25 24 25 25 23 24 26 27 26 26 26 26 26 26 25 24 24 24 24 23 23 24 24 25 25 26 26 26 26
19 19 20 20 20 20 20 20 20 20 20 20 20 21 21 21 21 20 21 21 21 22 22 21 22 22 23 24 22 23 24 25 25 25 24 25 25 24 25 25 24 25 24 25 25 25 24 25 25 24 24 26 26 25 27 27 26 27 27 26 25 26 25 24 25 26 26 26 26 26 24 23 25 25 24 24 24 24 24 24 23 23 24 25 26 26 26 27
19 19 20 20 20 20 20 20 20 21 21 21 21 22 22 22 21 21 21 21 21 23 23 22 22 22 24 24 23 24 25 25 25 25 25 26 25 24 25 25 25 25 24 24 25 26 26 25 24 24 24 26 26 26 27 27 25 25 27 28 27 28 27 25 25 25 23 23 25 26 22 22 25 25 25 25 23 24 24 24 24 23 23 24 25 26 26 27
19 20 20 20 21 21 20 21 21 21 21 22 22 22 22 22 22 21 21 21 22 23 24 24 24 24 25 24 23 24 25 25 25 25 25 26 26 25 25 24 25 25 23 24 25 25 25 25 25 26 25 25 26 26 26 27 25 24 26 28 28 29 27 25 25 24 22 22 26 27 23 22 24 25 26 26 24 24 24 24 24 23 23 23 25 26 26 27
19 20 20 20 21 21 21 22 22 21 22 23 23 22 22 22 22 22 22 21 21 22 23 24 25 25 25 24 24 25 24 25 26 25 25 26 26 26 26 25 25 25 24 25 24 24 25 25 25 26 26 26 26 25 26 27 25 24 26 27 28 29 27 25 25 24 24 24 25 26 24 22 22 24 27 26 24 24 24 24 24 24 23 23 24 26 26 27
20 20 20 21 21 21 21 22 21 22 23 23 23 22 22 22 21 22 22 20 21 23 23 24 25 25 25 24 25 25 25 25 26 26 25 26 26 26 26 26 26 25 25 25 23 23 25 25 25 26 26 26 26 26 26 26 27 26 26 27 28 29 28 27 26 24 25 24 22 23 24 22 21 24 26 26 24 24 24 24 24 25 24 24 24 25 26 26
20 20 21 21 21 21 21 21 21 22 23 23 22 22 22 22 22 22 21 20 22 24 23 24 25 25 25 25 25 25 25 25 25 25 25 26 26 26 26 25 25 25 25 25 25 25 25 25 26 27 26 26 27 27 26 27 28 27 26 27 28 28 28 27 26 25 24 23 21 22 23 22 22 23 25 24 24 24 25 25 25 25 25 25 23 24 25 26
20 20 21 21 21 21 21 21 23 23 23 23 22 22 22 22 22 22 20 20 22 23 24 24 25 24 24 25 25 25 25 25 25 25 25 26 26 26 25 24 25 26 25 25 26 26 25 25 25 27 27 27 27 26 26 27 28 27 27 28 27 27 27 27 26 25 22 22 22 23 24 23 22 23 24 24 24 26 27 26 26 25 25 25 24 24 25 26
20 21 21 22 21 21 21 23 24 24 23 23 22 22 22 22 22 21 20 21 22 23 24 24 24 24 24 25 25 24 25 25 24 25 26 25 26 26 25 25 25 25 25 25 25 25 25 25 26 27 27 27 27 26 25 26 27 27 28 28 25 24 24 24 23 23 22 21 22 24 25 23 21 23 26 27 27 27 27 27 26 26 25 26 25 25 25 26
21 21 22 22 22 22 22 24 24 23 23 23 22 22 22 22 21 20 21 22 22 22 23 23 23 23 23 24 24 23 24 24 24 24 24 24 25 25 24 24 24 23 22 23 24 24 26 26 26 26 26 27 27 26 25 25 26 27 27 25 22 22 22 21 21 22 21 22 23 24 24 23 22 25 27 27 28 28 28 28 27 26 26 26 26 25 25 26
21 22 23 23 23 23 24 24 24 23 23 22 22 23 23 21 20 20 21 22 22 22 23 23 22 22 23 24 23 23 23 23 24 24 23 24 24 24 23 23 24 23 22 22 22 22 24 25 26 26 26 27 27 26 24 24 26 26 25 23 22 21 21 21 21 21 21 22 23 25 24 22 23 25 26 26 27 27 27 28 28 27 27 26 26 26 25 25
22 23 23 24 24 24 24 24 24 23 23 22 23 24 22 20 20 21 22 22 22 23 23 22 22 22 23 23 22 22 23 23 23 24 24 24 24 24 24 24 24 24 24 23 22 22 22 23 25 27 26 26 27 28 27 27 26 26 28 26 23 22 22 21 21 21 22 22 22 24 23 22 22 24 25 26 26 26 27 27 28 28 27 26 26 26 26 25
23 23 24 24 24 24 24 24 24 23 22 23 24 23 21 20 20 21 22 23 23 23 23 21 22 23 23 23 22 22 23 23 23 23 24 24 23 23 23 24 24 24 24 22 22 22 21 22 26 26 25 26 27 28 28 28 26 26 28 26 23 24 24 22 22 22 22 22 22 22 23 24 25 25 25 26 26 26 26 27 28 27 27 27 26 26 26 25
23 23 23 24 24 24 24 24 24 23 23 24 24 22 21 21 21 21 22 23 23 23 23 22 23 23 22 23 23 22 23 23 23 23 23 22 22 23 23 23 23 23 24 23 22 22 21 22 26 26 24 26 27 27 28 27 26 25 25 24 25 28 27 22 21 22 22 21 22 22 22 24 25 25 25 26 26 26 26 27 27 27 27 26 26 26 26 25
23 23 23 23 23 24 24 24 24 23 24 25 23 21 21 22 22 22 23 23 22 22 23 22 22 21 21 22 22 23 24 23 22 23 22 22 22 22 23 23 23 23 23 23 23 23 22 22 26 26 26 26 25 25 27 27 27 25 24 25 26 27 27 24 22 22 21 21 22 21 22 22 23 23 25 26 26 26 26 26 27 27 27 26 26 27 26 25
22 23 23 23 23 23 24 24 23 23 24 24 22 21 21 22 22 22 23 22 22 23 23 22 21 21 21 21 21 22 23 22 22 22 22 22 22 22 23 23 23 23 22 22 23 23 22 22 24 25 26 26 25 25 26 26 27 26 26 28 27 23 23 23 22 22 21 21 21 21 22 22 22 23 24 24 24 25 25 26 26 26 26 26 27 27 26 26
22 23 24 23 23 23 24 24 23 24 24 23 22 22 21 22 23 22 22 22 22 23 23 21 21 21 21 21 21 22 22 22 22 22 21 22 22 22 22 22 23 24 22 22 24 23 23 22 23 25 25 25 26 26 25 25 26 26 27 28 27 25 23 23 23 23 22 21 22 21 21 22 23 24 24 24 23 24 25 25 25 26 26 26 26 27 26 25
21 24 24 22 23 23 23 23 24 24 24 22 21 22 21 22 24 23 22 22 23 23 23 22 22 22 22 21 21 21 21 21 22 22 21 21 22 22 23 22 22 23 22 23 23 23 23 22 21 25 26 24 25 25 25 25 26 26 25 25 25 25 25 25 24 23 22 22 22 22 21 22 23 24 24 24 23 23 23 23 24 25 25 26 26 26 26 25
20 24 24 22 23 22 22 24 23 22 22 21 21 22 22 23 24 24 23 22 23 23 22 22 22 22 22 22 21 21 22 21 21 21 22 22 22 22 23 22 21 22 23 24 24 23 23 23 21 23 24 23 24 26 25 25 25 26 26 25 25 25 24 23 22 22 23 22 22 22 22 22 22 23 23 23 23 23 23 22 22 23 24 24 25 25 25 25
22 25 23 22 23 22 23 24 21 19 22 23 22 22 22 23 23 23 23 23 23 23 23 23 22 22 22 22 21 21 22 22 21 21 22 22 22 22 22 21 20 21 22 24 24 23 23 23 22 22 23 24 25 25 24 23 25 26 26 26 26 26 24 22 22 22 22 22 22 22 22 22 22 23 23 23 23 23 23 23 22 22 23 23 24 24 24 24
23 24 23 22 22 22 24 24 21 21 23 22 21 22 22 22 23 23 23 22 23 23 23 23 22 22 22 22 22 22 21 21 21 21 22 21 22 23 22 21 20 21 23 23 23 22 22 22 21 22 23 25 26 25 24 25 25 25 25 25 25 25 24 23 23 23 22 22 22 22 22 22 22 22 22 22 22 22 22 22 22 22 22 22 23 23 24 24
20 21 22 23 23 23 24 24 23 23 23 22 22 23 22 22 23 23 22 22 22 22 23 23 22 23 22 21 21 21 21 21 21 21 21 21 22 23 22 21 21 22 23 23 23 23 22 22 21 21 22 22 24 24 24 25 25 25 24 24 24 24 24 24 24 24 23 22 22 22 22 22 22 22 22 22 22 21 21 22 22 21 21 21 21 22 22 22
19 20 21 22 23 23 23 22 22 23 22 22 23 22 22 23 22 22 22 21 21 21 21 22 21 22 22 21 21 21 20 21 21 21 21 21 22 23 22 21 21 22 22 21 22 22 22 21 21 21 21 21 21 21 22 23 24 24 24 24 24 23 23 23 23 22 22 21 22 22 22 21 22 22 22 22 21 21 21 21 21 21 21 21 21 21 21 22
21 22 22 23 23 22 20 19 20 22 23 23 23 21 21 23 22 21 22 22 21 20 21 21 21 21 22 22 21 21 21 21 21 21 21 22 23 23 22 22 21 22 22 21 21 22 22 21 21 21 21 21 21 21 22 23 23 23 23 23 23 23 23 23 23 22 22 22 21 22 22 21 21 22 22 21 21 20 20 20 21 21 22 21 21 21 21 21
21 22 21 22 22 22 21 19 19 21 22 22 22 21 21 22 22 22 22 22 21 20 20 20 20 21 22 22 22 21 21 21 21 21 21 21 22 22 21 22 22 22 23 22 21 22 23 22 21 21 22 22 23 23 23 23 23 22 22 22 23 23 23 23 22 22 23 22 21 22 23 21 22 23 22 21 21 21 21 21 21 21 22 22 21 21 21 21
20 20 18 19 21 22 21 20 20 20 21 21 21 21 21 21 22 22 22 22 21 21 21 21 20 20 20 21 22 21 20 21 21 21 20 20 21 22 22 23 22 22 23 22 21 22 23 22 21 22 22 22 22 23 23 23 23 23 22 22 23 23 22 22 22 22 23 22 22 23 23 22 23 24 22 21 21 21 21 21 21 21 22 22 21 21 20 20
18 19 17 17 19 20 19 18 19 20 21 21 21 21 21 22 21 21 21 21 22 21 21 21 20 19 19 20 21 21 20 21 21 20 21 21 20 21 22 23 23 22 23 23 21 20 21 22 21 22 22 22 22 22 23 23 23 23 23 23 23 23 22 22 22 22 22 22 22 23 23 23 24 24 22 21 21 21 21 21 21 21 21 22 21 21 20 20
17 18 17 18 19 19 17 17 19 22 21 20 21 21 20 21 21 20 20 21 22 21 21 21 20 19 20 21 21 21 20 21 21 21 21 21 20 21 21 22 22 23 22 22 21 20 21 21 21 21 22 22 22 22 22 23 24 23 23 24 23 23 23 22 22 22 21 22 23 23 23 22 23 23 22 21 21 21 20 20 20 21 21 21 21 20 19 19
15 15 15 18 20 18 18 18 19 22 22 21 21 21 20 21 21 20 20 20 20 21 22 21 21 20 20 21 21 21 21 20 21 21 21 21 21 21 21 21 21 22 22 21 20 21 21 21 20 21 21 21 22 22 22 23 24 23 22 23 22 22 22 21 21 20 20 21 22 22 22 22 22 22 21 20 20 20 20 20 20 20 21 21 20 19 19 19
14 14 14 17 20 18 17 18 19 21 22 21 20 20 21 21 21 20 21 20 19 20 20 20 21 21 21 21 21 21 21 21 21 21 20 20 20 20 20 20 20 21 22 21 20 19 20 21 21 21 21 21 21 21 21 22 22 21 22 22 22 22 21 21 21 20 20 21 21 22 22 22 22 21 21 20 20 20 20 20 20 20 21 21 20 19 19 19
Height
806 805 804 802 801 800 799 798 797 796 796 795 795 794 793 793 792 791 791 790 789 788 787 786 785 784 783 782 781 780 779 778 778 778 775 769 768 771 772 773 774 775 777 778 780 782 785 787 788 789 790 791 792 792 792 792 792 798 806 813 814 811 808 803 800 799 801 804 805 804 802 805 809 806 803 803 807 810 811 811 810 809 809 811 815 819 824 827
806 805 803 802 801 800 799 797 796 796 795 794 793 793 792 792 791 790 790 789 788 787 786 785 784 784 782 782 781 780 779 778 777 774 768 765 767 769 771 772 773 774 776 778 779 780 783 786 787 788 790 792 794 793 794 793 794 801 807 812 811 807 804 797 795 795 796 801 803 803 802 803 806 806 803 809 815 812 814 816 814 814 815 815 817 822 825 827
805 804 803 802 801 799 798 797 796 795 794 793 792 792 791 791 790 790 789 788 787 786 786 785 784 783 782 782 781 780 779 778 775 769 764 763 766 767 769 771 773 774 775 777 779 780 781 784 786 788 790 794 794 794 797 795 796 801 805 811 806 799 798 793 792 792 794 797 801 804 802 803 805 803 804 810 815 813 815 817 816 819 819 818 819 822 826 828
804 803 802 801 800 798 798 796 795 794 793 792 791 791 790 790 789 789 788 787 787 786 785 784 783 783 782 781 781 780 780 778 772 765 763 763 764 766 768 770 772 773 775 777 779 781 781 783 785 787 791 796 795 795 798 797 798 801 803 807 799 794 797 794 791 792 793 796 800 803 803 807 805 802 805 809 815 818 816 812 812 816 817 817 819 821 825 828
803 802 801 800 799 798 797 796 794 793 792 791 790 789 789 789 788 788 787 787 786 785 784 784 783 782 782 781 781 780 780 779 770 763 764 764 764 765 767 769 771 773 775 777 780 782 783 784 786 788 792 797 798 798 799 794 795 801 800 798 794 793 799 796 792 793 794 797 801 804 806 807 804 804 807 809 815 817 813 810 809 810 813 814 817 821 824 827
803 801 800 799 798 797 795 794 793 792 791 790 789 788 788 788 787 787 786 786 785 784 784 783 782 782 781 781 781 781 781 777 767 764 765 764 764 765 767 769 771 773 775 778 780 782 783 785 788 792 794 797 800 799 798 792 793 802 799 793 792 792 797 796 793 794 794 798 803 805 804 803 806 810 808 809 813 811 808 809 808 810 812 813 816 821 824 827
802 800 799 798 797 796 794 793 792 791 790 788 788 787 787 786 786 786 785 785 784 784 783 782 782 782 781 781 781 781 780 774 765 764 764 763 764 764 767 769 771 774 775 777 779 781 783 786 789 791 795 798 800 798 796 793 793 801 801 794 791 792 797 796 794 795 795 799 802 801 803 805 810 812 810 811 811 808 807 808 808 812 814 815 818 821 824 826
801 800 799 798 796 795 794 792 791 790 789 788 787 786 786 786 785 785 784 784 783 783 783 782 782 781 781 782 781 780 779 772 765 764 763 762 763 763 766 769 772 774 774 777 779 781 783 788 790 789 796 798 797 797 794 794 796 800 800 794 792 795 797 795 795 797 797 800 800 801 806 809 808 808 811 813 811 807 807 809 809 812 815 817 819 821 824 826
801 799 798 797 795 794 793 791 790 789 788 787 786 785 785 785 784 784 784 784 783 783 782 781 782 781 782 782 781 780 774 769 766 764 763 762 763 764 766 769 773 774 775 778 779 781 784 788 789 787 793 795 794 795 793 797 800 797 796 793 794 798 798 797 798 799 800 801 801 805 811 810 805 806 813 814 811 809 807 810 811 813 817 819 820 822 824 826
800 799 798 796 795 793 792 791 789 788 787 786 785 785 785 784 784 784 783 783 782 782 782 782 782 782 782 781 782 779 771 767 766 764 763 764 764 767 768 769 772 774 776 778 779 781 783 785 786 783 788 792 794 795 793 797 796 792 792 793 797 801 799 799 803 803 803 804 803 808 813 811 806 809 817 814 809 809 809 813 813 815 819 819 820 822 824 826
800 798 797 795 794 793 791 790 788 787 786 785 784 784 784 783 783 783 783 783 782 782 782 782 782 782 783 781 782 777 768 767 767 764 765 766 766 769 770 771 773 775 776 779 780 781 782 783 782 783 789 792 794 795 793 792 791 789 790 797 803 803 803 803 806 807 806 808 806 807 813 813 810 813 816 813 810 809 811 815 815 817 819 819 821 822 824 827
799 798 796 795 793 792 790 789 788 787 785 784 784 783 783 783 783 783 782 782 781 781 782 782 782 782 782 782 780 773 767 768 767 766 767 767 769 770 772 774 774 775 776 778 781 781 782 783 782 787 791 791 794 797 793 789 788 789 790 803 810 805 809 811 811 812 810 811 808 808 819 821 818 817 814 811 810 810 812 815 817 818 819 820 822 823 825 826
798 797 796 794 793 791 790 788 787 786 785 784 783 782 782 782 782 782 782 782 781 781 782 782 782 783 783 780 773 768 767 768 768 768 769 769 770 772 773 775 776 777 777 778 780 781 782 783 783 787 788 789 795 793 789 787 788 792 793 802 810 811 817 816 814 814 811 813 808 813 830 829 821 818 813 811 811 813 815 817 818 819 819 821 822 823 825 826
798 796 795 794 792 791 789 788 787 785 784 783 782 782 782 782 782 782 782 782 781 781 782 782 783 783 783 776 767 767 768 767 768 768 769 770 771 773 775 776 777 778 779 779 780 781 782 783 784 786 786 789 791 787 789 792 791 796 800 802 808 817 823 816 812 813 814 815 810 818 834 830 821 819 814 811 811 814 817 818 818 819 819 821 822 824 825 825
798 796 795 793 792 790 789 787 786 784 783 782 781 781 781 781 782 782 782 782 782 782 782 783 783 783 782 774 766 767 767 767 768 768 769 770 771 773 775 776 778 779 780 780 781 782 783 784 786 789 789 787 788 792 797 799 797 798 807 812 810 816 823 816 811 812 813 815 812 821 834 829 821 819 814 811 812 814 817 819 819 819 820 820 822 824 825 825
797 796 794 793 791 790 788 787 785 784 783 782 781 781 781 781 782 782 782 782 782 783 783 784 783 783 782 773 766 766 767 767 767 768 769 770 771 773 775 776 778 779 781 781 781 782 783 785 787 789 791 790 793 797 800 805 808 804 806 814 812 814 821 818 814 811 809 814 817 823 831 828 821 817 815 813 813 815 817 819 820 820 821 821 822 823 824 825
797 795 794 792 791 789 788 787 785 784 782 781 781 781 781 781 781 782 782 782 783 783 783 784 783 784 778 768 767 769 767 767 767 768 768 770 772 773 775 777 778 780 781 781 782 783 784 787 790 791 793 796 797 798 805 814 815 810 807 810 811 811 815 819 819 813 809 815 819 823 827 826 820 816 816 815 814 816 818 819 820 821 821 821 821 822 823 825
796 795 793 792 790 789 788 786 785 783 783 782 781 781 781 781 782 782 782 782 783 784 784 784 783 784 779 769 769 770 767 767 767 768 769 771 773 773 774 776 778 780 783 785 784 785 787 789 791 796 798 800 800 799 807 812 807 808 810 809 812 811 811 817 818 811 811 816 818 822 826 824 820 816 816 816 815 817 817 818 820 820 822 822 822 822 823 824
796 795 793 791 790 788 787 786 785 784 783 781 781 782 781 781 781 782 783 784 783 782 781 781 780 781 779 771 768 767 766 766 767 768 769 770 773 774 774 776 778 781 786 790 789 788 789 792 797 802 802 801 800 798 800 803 799 802 805 806 809 810 810 810 809 806 808 816 818 819 824 823 821 818 816 816 816 819 818 818 820 821 822 823 822 822 822 823
796 794 792 791 789 788 787 785 785 784 783 782 782 781 782 783 783 782 782 782 780 777 775 776 776 776 774 770 767 766 765 765 766 767 769 770 771 774 775 778 781 784 788 791 793 789 787 796 802 801 800 799 798 797 797 798 798 799 802 805 805 806 809 806 804 804 803 813 818 814 818 822 820 818 815 815 817 820 820 820 821 821 822 823 823 822 822 822
795 793 792 790 789 787 786 785 784 784 783 782 782 782 783 785 787 785 781 778 774 773 773 773 773 774 770 768 767 766 767 767 767 767 769 770 770 775 780 781 785 789 790 791 792 790 790 799 800 795 796 797 797 798 798 798 798 799 801 804 805 806 809 805 803 803 800 809 815 812 816 819 817 816 814 815 818 820 820 820 820 819 820 821 822 822 821 821
794 792 791 789 788 786 785 784 784 784 783 782 782 782 783 784 784 783 782 781 774 771 773 772 773 773 767 767 767 766 770 771 771 770 769 770 771 777 782 783 787 791 791 791 793 796 800 799 794 792 796 797 799 800 800 800 799 800 801 802 805 806 809 809 805 802 801 808 814 812 815 816 814 814 813 813 815 817 816 817 817 817 818 820 820 821 820 821
793 791 790 789 787 786 785 784 783 783 783 782 782 782 782 781 780 780 782 784 779 771 771 771 772 771 768 767 765 766 770 771 773 772 768 770 774 777 780 784 788 790 792 792 793 800 805 797 790 792 796 797 800 801 801 801 800 801 801 803 805 805 810 815 812 807 803 808 812 811 814 815 814 815 815 813 812 813 814 815 816 815 816 817 817 818 819 820
792 790 789 787 786 785 783 783 783 782 782 781 781 781 780 780 779 780 781 784 783 774 769 769 768 769 768 766 764 767 769 768 770 770 767 769 775 777 779 782 788 790 791 791 791 796 798 793 789 793 796 796 800 803 801 801 802 802 802 802 804 804 807 812 813 810 808 810 809 812 823 822 816 818 817 813 812 813 813 815 817 816 815 815 815 815 816 817
790 789 788 786 786 784 783 783 782 781 781 780 780 780 779 779 778 778 780 786 786 775 768 768 768 767 765 764 765 765 767 768 767 766 765 766 771 777 780 780 784 791 794 792 792 793 792 790 790 795 797 796 799 802 801 800 802 804 801 798 799 801 805 810 812 813 821 824 810 811 832 828 813 816 815 812 816 815 813 814 816 817 817 816 815 814 815 815
789 788 786 785 785 784 783 782 781 781 780 779 779 779 778 778 777 778 782 790 789 779 773 771 770 768 764 765 765 763 770 772 765 763 764 765 766 771 780 782 782 789 792 790 790 791 790 789 789 793 797 798 800 801 800 799 803 806 800 794 796 798 803 811 812 814 825 826 808 805 825 827 814 812 808 808 815 815 813 814 813 815 817 816 814 813 813 814
788 786 785 784 783 783 782 780 781 781 779 779 779 778 778 776 777 777 783 798 799 786 779 773 770 769 766 765 763 766 779 776 765 765 764 765 766 766 777 784 783 786 786 788 795 793 789 791 793 793 795 798 800 801 799 797 802 806 798 794 797 796 801 809 810 812 814 814 812 808 814 823 818 809 802 805 814 815 813 813 811 811 814 814 813 811 811 812
787 785 784 783 782 782 781 780 781 779 779 779 777 777 777 775 777 777 790 812 806 785 780 775 767 766 764 764 764 768 775 772 772 772 763 764 767 767 777 781 781 783 782 788 799 794 787 791 793 792 796 798 797 796 795 796 800 800 796 797 796 795 799 803 806 810 808 812 823 817 813 824 820 806 802 805 813 816 812 810 808 807 808 810 811 811 810 809
786 784 782 782 781 780 780 780 779 778 778 778 776 777 775 774 777 780 795 813 801 780 779 775 767 768 767 766 769 770 770 770 775 773 763 766 767 767 776 778 778 784 783 785 791 789 787 787 786 788 794 795 792 792 791 794 797 794 795 797 796 797 799 801 806 808 811 820 824 816 813 823 818 805 807 813 814 812 805 803 804 802 803 805 809 810 808 808
784 782 781 780 779 779 779 778 777 777 777 776 776 774 773 776 780 792 810 811 796 784 778 774 773 774 773 774 775 774 773 774 774 770 769 771 768 768 774 775 776 783 785 785 786 786 785 784 783 785 788 787 787 790 790 790 791 791 795 797 800 803 801 805 806 805 821 829 816 807 808 817 819 807 804 810 806 800 798 799 800 800 801 802 804 806 806 806
782 780 779 778 778 778 778 777 776 776 776 775 775 772 775 780 786 806 818 804 792 787 779 778 780 777 776 779 780 778 777 777 775 775 776 776 774 775 778 779 780 786 791 790 788 788 786 786 786 781 780 782 785 791 792 790 790 793 796 798 807 813 811 816 817 817 834 832 811 803 803 814 823 807 795 797 793 790 793 794 796 797 798 797 799 802 803 804
780 778 778 777 777 777 777 776 775 775 775 774 774 773 779 790 800 813 812 796 794 793 784 785 785 782 781 780 784 784 781 781 779 779 782 783 783 784 787 789 789 796 802 798 794 792 788 785 785 781 778 780 785 793 796 795 794 797 799 802 815 826 829 834 834 832 835 824 809 804 805 816 817 798 791 793 788 787 787 786 788 790 792 793 794 797 799 800
778 776 776 775 775 775 775 775 774 775 774 772 774 775 782 801 814 814 806 798 797 791 785 787 785 785 784 782 787 787 784 786 783 782 785 785 787 790 791 790 789 795 802 801 799 798 794 787 784 784 781 777 782 791 797 799 798 798 801 805 816 827 838 845 842 838 832 818 806 803 809 817 807 793 793 793 787 785 782 781 782 783 786 789 789 792 795 798
776 774 775 774 774 774 774 774 774 774 773 771 775 779 791 811 815 807 802 798 793 786 786 790 787 786 786 786 791 788 786 791 787 784 786 786 790 794 792 789 789 790 793 798 801 800 805 801 787 783 783 778 779 782 784 789 793 794 791 796 806 812 822 834 835 833 828 818 812 811 814 814 803 797 794 787 785 782 779 779 778 779 782 784 786 790 793 796
774 773 774 773 774 774 773 774 773 773 773 772 777 788 803 816 813 806 802 794 790 788 788 790 788 788 789 790 791 788 787 791 789 788 789 791 796 799 796 793 791 790 792 800 801 799 807 802 782 777 780 777 778 776 774 783 793 794 787 794 803 796 798 814 818 813 814 818 821 818 811 800 794 794 789 784 784 781 779 779 778 780 781 783 787 790 791 795
773 773 773 773 774 774 773 774 773 772 772 773 784 799 807 807 804 803 797 789 789 791 789 790 790 793 795 793 793 790 785 787 792 792 794 797 799 799 798 794 791 791 792 797 800 800 806 797 778 778 780 776 776 774 773 781 789 795 795 796 794 784 787 806 815 810 813 821 822 817 807 796 793 794 789 786 786 783 782 781 779 781 781 784 788 788 790 794
773 773 773 774 774 774 774 774 773 772 772 776 790 804 804 797 794 794 791 787 790 790 791 795 797 799 802 798 796 793 787 788 793 794 797 802 800 798 798 794 791 791 790 793 796 796 801 795 780 779 781 776 775 775 774 774 777 790 796 788 785 787 789 798 812 818 822 824 821 816 810 804 804 801 793 790 791 789 786 783 782 782 782 785 786 786 789 791
773 773 773 774 774 774 774 774 773 773 774 783 796 803 801 795 791 790 788 788 789 788 793 800 800 801 804 802 801 798 793 793 796 797 800 802 801 799 798 795 791 790 790 791 793 793 797 797 785 780 782 778 774 777 781 777 773 780 782 775 781 798 802 802 811 817 821 826 822 818 816 808 802 798 795 797 798 794 790 787 786 785 784 786 786 786 788 790
772 774 776 776 774 774 774 774 774 774 778 792 802 802 799 795 790 788 787 788 788 788 794 801 800 800 802 802 802 800 798 798 800 802 803 804 803 798 796 797 792 789 790 790 791 792 795 800 794 781 778 779 775 777 783 782 778 777 778 776 779 788 792 796 800 799 808 822 821 820 821 809 795 793 797 801 800 795 793 791 789 787 786 785 786 787 789 791
772 777 780 777 775 776 775 774 775 779 787 798 802 800 798 794 788 785 786 787 787 788 793 799 798 799 801 801 801 801 801 802 802 803 805 805 804 799 794 796 795 791 790 789 790 793 794 801 800 784 775 780 782 781 782 781 781 780 781 784 785 784 784 788 793 791 797 811 816 818 818 804 794 796 797 797 797 796 795 795 794 791 787 787 786 787 789 791
774 780 782 777 776 777 775 777 784 789 794 800 801 798 796 792 788 786 785 785 786 787 789 793 796 798 799 800 801 801 801 803 804 804 805 803 804 802 795 795 797 795 791 790 790 793 794 799 802 792 783 785 784 781 779 780 781 779 780 781 783 784 786 794 804 799 794 800 805 808 807 800 798 798 795 795 796 796 795 796 797 794 791 790 789 788 789 790
777 783 783 777 777 777 777 784 794 796 795 796 797 795 793 790 789 789 787 785 786 786 787 790 794 797 798 799 801 801 801 804 806 805 805 804 803 802 796 794 798 796 792 793 793 792 792 797 801 795 787 785 782 779 780 782 780 778 780 782 782 782 783 791 800 799 797 801 801 802 803 802 801 797 794 796 795 794 794 794 795 796 793 792 791 789 790 791
781 783 780 776 777 777 780 790 796 795 793 793 794 794 792 791 791 790 789 789 789 788 788 791 794 795 797 798 799 801 802 805 808 806 805 806 802 798 795 794 796 795 792 794 795 792 793 799 803 797 788 782 777 777 778 777 779 782 785 786 788 787 785 786 788 789 794 799 799 802 808 806 802 798 795 796 796 795 796 794 795 797 796 795 794 793 793 793
784 783 780 778 777 777 783 792 795 795 795 794 793 793 792 792 793 792 793 793 793 793 793 794 794 793 796 798 798 802 804 806 808 807 806 807 801 795 795 794 794 793 792 794 794 793 797 804 805 803 803 798 790 789 787 781 783 790 793 791 791 790 789 789 788 787 792 797 795 797 804 805 801 798 798 798 798 799 798 795 795 797 798 798 797 796 796 796
786 785 783 780 777 779 786 792 793 795 797 795 795 797 796 794 794 794 795 795 795 796 796 796 796 795 796 798 800 804 804 803 806 807 806 805 800 794 794 795 793 792 792 793 791 791 799 806 807 808 816 819 816 812 806 798 794 794 795 795 792 792 792 791 789 790 796 802 798 791 798 807 805 801 801 801 801 802 801 799 797 797 798 798 798 799 799 798
786 787 787 783 780 782 789 793 792 793 795 795 798 801 801 799 796 794 794 796 796 796 797 798 797 796 796 798 802 806 805 802 804 806 807 805 800 796 796 795 794 793 791 791 791 792 798 805 807 808 809 812 814 811 804 800 800 801 801 799 795 793 794 792 790 788 790 799 800 790 795 809 810 804 803 803 803 803 803 801 800 799 798 798 799 800 800 800
787 790 792 790 788 788 792 794 795 794 794 795 799 803 803 802 799 795 794 796 797 797 798 800 800 799 799 800 803 807 808 805 804 806 809 809 803 799 797 795 794 793 790 790 791 792 798 803 805 804 801 800 801 802 800 799 801 804 805 802 797 794 794 793 792 788 785 790 796 792 794 805 805 800 801 804 803 802 802 802 802 800 799 799 800 801 802 803
789 793 795 794 794 795 794 795 796 796 795 796 799 803 804 803 803 801 798 796 796 797 799 802 803 803 804 803 803 808 811 809 808 809 811 810 806 802 798 795 794 792 791 791 791 792 799 804 803 802 802 801 801 800 799 799 800 802 803 801 799 797 796 797 797 796 792 791 791 790 793 797 794 793 798 802 801 801 801 802 801 800 800 800 802 804 805 806
791 794 796 795 795 797 798 799 798 797 796 797 799 802 804 804 804 805 803 800 800 800 801 805 808 806 806 803 802 809 814 812 812 812 809 809 809 807 804 800 797 793 792 794 795 797 801 804 804 803 801 802 804 803 799 798 799 800 799 797 797 797 798 799 799 798 798 797 793 790 793 794 789 790 796 800 799 800 802 802 802 802 802 802 804 806 807 808
794 795 796 795 796 798 800 800 797 795 797 799 800 803 804 804 804 805 804 804 805 804 802 806 809 807 805 803 802 807 810 808 809 811 809 809 810 809 808 806 801 797 795 797 800 799 799 805 808 806 803 803 803 802 800 798 799 800 798 796 796 797 798 799 801 801 801 801 796 791 795 798 793 790 796 800 800 802 804 805 805 804 803 804 806 809 810 811
796 797 796 795 796 799 801 801 798 796 797 798 801 803 804 804 803 803 804 804 805 804 802 804 807 806 805 804 804 806 806 805 805 805 804 805 806 805 805 805 804 802 800 801 804 801 800 807 809 806 809 807 803 805 804 798 796 799 800 800 801 801 803 804 805 807 807 804 799 796 798 800 796 793 797 801 803 804 807 807 807 806 805 806 809 812 813 813
797 797 797 795 797 800 802 801 800 798 797 799 800 801 802 802 801 802 805 805 804 803 802 803 804 805 805 806 806 804 801 802 801 801 801 802 802 803 804 804 805 804 803 803 807 808 808 808 807 808 811 808 806 808 806 804 808 809 803 801 801 802 805 806 805 806 807 805 804 802 799 797 795 795 800 805 806 807 808 808 808 808 807 809 812 814 814 815
Wind_Speed
11 11 11 12 12 12 13 13 13 13 12 12 12 11 11 10 10 10 10 10 10 10 10 11 11 11 11 10 10 10 11 13 13 9 10 12 11 11 8 8 14 14 15 18 20 17 10 7 8 7 6 4 2 2 4 4 2 1 2 3 3 3 4 5 5 3 5 7 10 8 6 9 11 8 6 7 9 10 9 9 9 10 11 14 19 22 23 22
12 12 12 12 12 13 13 12 13 13 13 13 12 11 11 10 10 9 9 10 10 10 10 10 10 10 10 10 9 9 12 14 12 12 16 15 9 10 12 10 15 18 18 20 21 17 11 8 9 9 6 3 2 2 3 3 3 2 2 3 4 2 3 6 3 5 7 9 12 9 8 10 11 10 7 7 10 10 10 10 11 14 14 17 22 23 22 21
12 12 12 12 12 12 13 13 13 13 13 13 12 12 11 11 10 9 9 10 9 10 10 10 10 10 10 9 8 9 11 11 7 7 9 7 8 10 13 14 17 21 20 21 23 19 14 13 13 10 4 3 2 2 3 3 3 2 2 3 4 2 3 6 2 6 8 10 14 11 9 10 9 8 5 8 11 9 10 10 11 14 16 18 20 21 22 20
13 13 13 13 13 13 13 13 13 13 13 13 13 12 12 11 10 9 9 9 9 10 10 10 10 9 9 8 7 9 8 5 2 2 6 6 3 10 14 16 20 22 20 21 22 16 14 15 12 7 4 3 3 2 3 3 2 1 2 3 4 4 4 6 5 9 11 9 12 12 11 10 8 6 6 11 10 6 7 9 12 16 18 20 19 20 21 19
14 14 14 14 14 14 13 13 13 13 13 13 13 12 11 10 9 8 8 9 9 10 10 10 9 9 7 5 6 7 5 2 1 4 4 6 1 11 15 18 23 21 20 19 16 12 12 14 10 5 3 3 4 3 3 4 3 2 3 5 5 4 5 6 7 11 12 8 10 11 11 10 8 6 8 9 5 4 5 6 12 17 18 20 20 20 19 18
14 14 14 14 14 14 14 14 14 13 13 13 12 11 10 9 8 8 8 9 10 10 10 9 9 8 5 4 4 4 3 2 2 8 6 7 3 13 18 21 23 20 20 17 14 12 11 11 9 6 4 3 4 4 1 4 5 3 3 4 5 2 3 5 8 10 11 10 10 9 8 8 9 8 6 3 1 4 6 6 12 15 17 21 20 19 17 16
14 14 14 15 14 14 15 14 14 14 13 12 11 10 8 8 7 7 8 9 9 9 9 8 7 5 2 3 2 1 2 3 6 11 10 10 4 17 21 22 23 19 19 18 13 10 10 11 8 6 5 3 3 5 1 3 6 5 4 4 2 4 4 5 7 8 9 10 9 8 8 8 9 10 5 2 3 7 9 9 14 16 18 20 18 17 15 15
14 14 14 15 15 14 15 15 14 14 13 12 10 8 8 7 7 7 7 8 9 8 7 7 6 1 1 2 1 2 2 4 11 12 10 7 9 23 24 23 23 19 18 19 13 9 10 10 9 6 5 4 2 3 2 3 5 6 5 3 2 7 6 6 8 8 9 8 8 9 8 6 6 8 5 3 5 10 12 12 15 17 16 16 15 15 14 14
14 14 15 15 15 15 15 15 14 13 12 11 9 7 7 6 6 6 6 8 8 6 6 5 3 2 2 2 1 2 1 4 12 11 7 1 18 25 24 24 24 19 16 16 14 10 7 7 7 4 4 4 2 2 2 3 2 4 5 2 5 7 7 8 8 8 8 6 7 10 9 6 4 6 5 4 7 11 14 14 15 16 15 13 13 14 13 12
15 14 15 15 15 15 15 14 14 13 12 10 9 6 6 6 5 5 5 6 6 5 4 2 3 2 1 1 1 1 1 5 13 11 3 10 22 23 21 23 24 19 13 11 12 9 5 5 5 1 1 3 1 1 1 2 2 0 4 3 7 9 7 7 8 7 7 4 4 9 9 5 2 2 3 6 9 13 15 15 15 15 15 13 12 12 12 13
15 15 15 15 15 15 15 15 14 12 11 9 8 6 5 5 4 4 4 4 4 3 2 1 2 2 1 0 2 1 2 6 14 10 6 16 22 21 18 20 22 19 13 8 8 9 6 4 3 1 1 2 1 2 1 1 5 1 6 8 10 9 7 6 7 5 3 3 2 7 8 4 1 2 4 9 11 14 15 16 15 15 13 12 13 12 11 11
15 15 16 16 16 15 15 14 13 12 11 9 7 6 5 5 5 4 3 2 2 1 1 0 3 3 1 0 4 4 2 5 12 7 12 18 19 18 15 17 17 17 16 9 8 11 8 4 2 2 1 0 1 1 0 3 4 5 9 8 7 7 6 5 6 2 1 3 3 5 6 3 3 3 6 10 11 13 15 15 15 14 12 11 11 10 9 10
15 15 16 17 16 16 15 14 14 12 10 8 7 6 6 6 5 4 2 2 2 0 1 1 3 3 1 2 3 3 4 5 8 4 14 17 14 12 10 13 12 11 13 10 12 14 9 4 2 2 2 2 0 2 2 2 1 7 7 6 6 5 4 5 4 2 3 4 3 2 2 5 6 4 8 11 12 13 13 14 14 12 11 11 10 9 9 11
15 15 16 17 17 16 16 15 15 12 8 6 6 6 5 5 5 3 1 1 1 1 3 3 3 2 1 4 3 2 1 2 3 3 14 15 12 11 8 11 9 7 7 6 10 13 11 4 3 1 1 2 1 3 2 1 3 7 5 4 4 2 2 1 3 5 3 3 3 2 1 3 5 6 7 10 13 14 13 13 14 12 11 11 10 10 10 11
16 16 16 16 16 16 16 16 15 11 8 6 5 4 4 5 3 1 0 0 1 3 5 4 2 0 2 4 3 2 1 1 1 2 11 14 12 9 8 10 9 7 7 5 5 7 9 5 1 1 1 0 2 3 1 4 3 4 4 3 2 1 2 2 4 5 2 4 3 1 1 1 5 7 6 10 14 13 13 14 14 13 12 12 11 10 9 10
17 16 16 16 16 16 16 16 15 11 8 6 5 3 3 3 2 1 2 1 2 5 5 3 2 1 1 1 2 2 2 1 3 2 9 14 9 8 11 12 9 7 5 3 4 5 6 5 2 1 0 1 2 1 3 4 4 3 2 2 4 4 3 2 3 4 3 5 5 2 1 1 3 7 6 8 14 14 12 14 15 13 12 12 10 10 9 9
18 17 16 16 16 16 16 16 14 10 9 7 4 2 1 0 1 2 2 2 3 5 3 1 1 1 2 2 2 1 2 2 4 4 9 12 8 11 13 8 6 6 3 1 2 4 6 4 2 1 0 1 0 1 3 4 4 4 3 1 4 5 5 3 3 5 6 6 7 5 3 1 2 8 8 7 11 14 13 14 15 13 11 11 10 9 10 9
19 17 16 15 15 15 15 16 12 8 9 7 2 1 2 2 3 3 3 3 4 4 2 1 1 1 1 2 2 1 4 4 3 4 7 10 9 11 11 6 7 8 5 2 2 2 4 2 1 2 2 2 2 4 4 2 2 5 5 2 4 5 5 4 3 7 10 7 8 9 5 1 3 8 9 8 9 12 14 13 13 13 12 11 10 10 10 10
20 18 16 15 15 14 15 16 11 7 8 6 4 5 4 3 4 3 3 3 2 2 1 1 2 1 1 2 3 5 7 5 2 1 9 13 11 9 10 9 8 7 6 4 2 2 3 3 2 4 5 4 4 5 2 1 1 4 6 3 4 4 3 4 4 8 12 9 8 10 6 2 5 8 10 10 9 9 12 12 11 12 12 10 9 9 10 10
21 19 17 15 15 14 14 16 10 7 8 4 5 4 3 2 1 1 1 2 3 3 3 2 3 3 4 3 5 7 6 2 1 3 11 14 13 11 8 6 5 4 5 5 4 2 3 5 6 6 5 3 3 3 1 3 2 4 5 4 4 3 2 3 4 9 13 8 7 10 8 5 6 8 11 11 10 8 9 11 12 12 13 12 11 10 11 11
21 20 17 15 14 13 14 14 7 6 7 3 3 1 1 1 2 3 2 3 4 5 6 4 2 5 8 5 5 4 3 2 4 4 11 14 14 9 3 2 4 4 3 3 4 2 3 7 8 6 4 1 1 2 3 2 2 3 3 3 3 3 2 1 3 11 13 7 6 9 9 8 7 8 10 11 12 11 10 10 12 14 15 13 12 12 12 10
22 21 18 15 13 12 13 12 4 5 7 3 2 1 2 1 4 4 3 3 4 3 5 4 2 6 9 9 7 2 0 2 5 4 9 12 7 4 3 3 4 4 3 4 5 4 5 8 8 5 3 2 1 2 3 2 0 2 1 2 2 2 2 2 2 9 12 6 5 10 9 8 7 7 9 11 12 11 9 9 9 13 14 13 12 12 12 11
23 21 19 16 12 11 12 9 3 5 7 2 3 3 1 5 5 6 3 3 4 1 1 2 2 4 4 4 4 5 2 2 4 4 10 10 3 2 6 4 3 5 5 7 7 6 5 5 5 6 5 4 1 2 4 3 2 2 1 1 2 2 2 2 2 7 9 2 3 10 8 4 6 6 7 11 11 9 9 9 7 8 11 12 13 12 12 13
23 21 19 16 12 10 11 6 2 6 8 2 3 1 4 11 5 6 4 2 3 2 1 2 2 3 2 1 4 6 2 1 3 5 10 9 4 3 5 4 4 5 4 6 8 8 5 2 4 7 7 6 3 3 4 4 3 2 2 3 1 2 1 1 4 7 6 1 2 8 5 3 7 8 8 8 9 9 11 11 9 7 7 9 11 12 12 13
24 22 19 16 11 10 11 4 1 7 10 3 3 3 9 13 4 6 3 1 1 2 1 2 1 2 1 0 4 3 1 1 0 4 9 9 6 4 3 2 3 4 4 5 7 8 5 3 6 7 6 6 5 4 4 5 3 2 4 6 4 3 2 5 9 8 4 3 5 8 5 3 7 10 11 8 9 11 11 13 13 9 7 8 10 13 13 13
24 22 18 16 11 9 7 1 1 10 8 1 2 6 11 12 2 7 1 1 2 3 2 0 0 1 1 0 3 3 1 2 2 2 8 9 6 3 3 2 1 2 5 5 4 3 2 4 5 6 6 7 6 4 3 4 4 3 3 5 6 5 5 9 11 6 2 1 5 8 5 1 4 9 12 11 12 14 13 15 17 11 8 9 10 12 13 13
24 21 17 15 12 8 4 1 5 8 3 1 4 9 12 9 2 6 1 1 3 3 3 2 2 2 2 1 1 2 1 2 2 3 4 6 3 0 3 4 2 2 4 3 2 2 3 5 4 4 5 6 5 4 4 5 5 2 1 3 8 8 7 10 9 5 1 2 4 6 5 3 2 4 9 12 12 14 15 17 18 15 12 11 11 11 12 14
23 21 17 13 11 9 4 4 6 4 1 3 7 11 12 4 6 4 1 1 3 2 2 2 2 2 2 1 1 1 1 1 1 2 0 3 3 1 2 5 5 5 3 4 5 2 3 6 5 5 4 4 4 3 6 7 5 1 2 2 5 7 7 9 7 3 2 2 3 6 4 4 3 2 5 10 11 13 16 19 19 19 17 14 11 11 12 12
22 19 16 12 11 8 4 5 5 3 3 6 10 12 7 3 6 1 0 2 2 1 2 2 2 2 3 1 2 3 1 2 1 1 1 2 2 2 1 3 3 5 3 2 4 2 1 3 4 5 4 4 4 4 8 10 5 2 5 3 3 3 4 6 5 2 3 3 4 7 8 5 3 3 5 8 10 12 15 16 18 19 19 16 12 12 13 11
20 17 14 12 9 6 4 6 4 3 6 9 12 9 1 5 2 0 2 2 2 1 2 2 3 2 2 1 2 3 2 2 3 2 2 1 2 3 1 1 2 4 3 2 2 1 1 0 1 3 3 3 4 3 6 9 5 4 6 3 4 4 3 3 2 1 3 4 3 7 11 6 3 3 6 7 6 7 10 12 15 18 19 17 14 13 14 12
18 15 13 11 8 4 3 4 3 5 9 10 9 4 3 2 1 2 3 2 2 2 1 2 3 2 1 1 2 3 2 2 3 2 2 1 2 4 1 1 2 2 1 1 2 1 1 2 2 3 3 3 3 3 1 2 1 2 3 4 3 3 3 3 2 2 4 3 1 4 11 9 6 2 4 6 4 3 6 10 14 17 19 17 15 14 14 12
16 12 10 9 7 6 4 4 6 8 10 9 6 1 2 0 2 2 2 2 2 3 2 2 2 2 1 2 4 4 1 2 4 2 3 1 2 4 2 1 1 2 2 2 2 0 3 3 1 2 3 4 5 3 2 0 2 4 3 4 5 4 3 4 3 3 5 3 2 2 9 7 6 2 1 3 5 5 6 8 12 16 18 17 16 15 14 12
13 9 7 6 6 6 6 6 8 8 8 6 2 1 1 2 3 1 2 2 2 2 1 1 2 3 2 1 3 3 2 2 3 2 2 1 3 4 2 2 1 2 1 1 1 2 3 2 2 3 3 5 7 5 3 3 5 7 6 6 6 5 5 6 4 2 4 4 0 3 7 4 4 1 2 3 6 7 7 8 10 14 17 17 16 16 13 11
10 6 4 4 4 4 5 5 5 5 6 3 1 1 3 4 2 1 2 2 1 1 1 1 3 3 2 2 3 2 2 4 3 2 2 1 2 3 2 4 3 1 0 1 1 2 3 2 4 5 2 4 8 8 6 4 6 7 6 6 6 4 4 4 4 4 4 3 3 6 6 3 2 1 3 5 5 6 7 8 8 10 13 14 14 15 14 11
7 2 2 2 2 3 2 3 2 3 4 2 2 2 4 2 1 1 1 2 2 2 2 1 2 3 3 3 2 2 1 2 3 3 4 3 2 2 2 3 5 3 0 2 1 1 3 3 2 2 1 4 7 6 4 4 4 4 4 6 6 4 3 1 2 3 2 1 3 5 4 2 0 1 2 3 3 3 2 7 8 8 10 12 12 13 13 11
4 2 2 3 5 3 2 2 1 2 2 1 3 4 3 0 1 1 1 2 2 3 2 1 3 3 3 1 2 3 3 2 2 2 4 3 2 2 2 2 3 2 1 1 1 1 2 1 1 0 2 5 5 4 6 5 4 3 4 6 3 1 2 1 1 2 0 3 3 3 4 1 1 2 1 3 4 5 2 4 7 8 10 12 12 12 13 12
4 4 5 8 8 3 2 2 1 2 2 2 4 3 0 1 1 2 1 2 1 1 1 1 2 3 2 2 2 4 4 2 2 1 2 1 1 3 4 2 0 1 2 1 1 0 2 2 0 0 2 3 1 1 3 3 3 4 4 5 4 1 2 1 2 3 3 5 3 3 6 3 1 2 1 3 4 5 3 2 4 6 9 12 13 13 13 13
4 3 4 10 10 2 4 3 2 2 2 3 3 2 0 1 0 2 1 1 1 1 2 1 1 2 1 1 2 4 4 1 2 2 2 2 1 1 4 3 1 2 2 2 1 1 2 3 0 1 1 1 1 3 3 2 2 1 1 6 5 3 4 3 3 4 5 4 3 3 4 4 4 3 2 3 3 4 2 2 3 6 9 10 12 14 14 13
3 3 2 10 9 3 5 2 3 2 3 3 2 1 1 2 2 2 1 0 0 1 2 1 1 1 1 1 1 2 4 1 1 1 1 2 1 1 3 2 1 3 3 1 1 1 1 2 1 2 1 1 0 3 4 5 3 0 1 4 2 2 4 4 3 3 3 4 3 4 3 3 4 1 3 3 2 2 3 4 3 5 7 8 10 12 12 12
2 1 1 8 7 4 4 2 3 3 3 2 1 0 1 2 2 2 1 0 0 1 1 1 0 1 1 1 0 1 3 2 1 1 1 1 1 1 1 1 3 5 4 1 1 0 1 1 1 1 1 2 1 0 2 2 3 3 5 6 4 1 1 2 2 1 2 3 4 4 4 2 1 2 3 4 3 3 5 6 4 4 6 7 9 10 10 11
2 1 1 7 5 4 2 3 3 2 1 1 0 1 1 2 3 4 2 0 1 1 1 1 1 1 1 1 1 1 1 2 2 1 1 1 1 1 2 1 2 4 2 0 2 2 1 0 2 3 2 0 2 2 2 2 1 1 2 4 4 2 3 5 5 1 1 2 2 4 5 2 3 2 3 4 4 4 7 8 6 5 7 7 8 9 10 11
1 2 1 5 3 3 1 2 1 1 1 1 1 1 2 2 2 4 4 3 2 2 2 2 2 1 1 1 1 1 1 2 2 2 2 2 1 1 2 3 2 2 1 0 1 2 1 1 1 3 2 2 1 1 1 0 1 2 4 3 2 1 2 6 6 4 3 2 1 1 3 1 2 2 2 4 4 4 6 8 8 6 7 8 8 8 9 10
1 1 1 5 1 3 1 2 1 1 1 1 1 1 2 2 1 3 4 4 3 2 2 2 1 1 1 1 0 1 2 2 2 2 1 1 1 1 4 5 2 2 0 1 0 1 1 0 1 2 2 1 1 2 4 3 2 3 6 7 4 3 3 3 2 2 5 4 2 3 3 1 2 3 3 4 5 4 4 6 8 7 6 7 8 8 8 8
1 1 1 6 2 3 1 1 0 1 1 1 1 1 1 2 2 3 4 4 3 2 2 2 1 1 2 1 2 2 1 0 1 2 1 1 1 1 3 5 3 1 1 2 1 1 0 0 1 1 0 2 2 3 3 3 4 3 5 7 6 6 3 2 0 0 4 3 2 5 4 2 4 4 5 5 6 5 4 4 7 7 6 6 6 7 7 7
1 1 1 5 4 2 1 1 0 0 1 1 2 2 1 1 2 2 2 3 3 2 1 1 1 1 1 1 2 3 3 1 2 1 1 0 1 1 2 5 5 2 2 1 2 2 0 1 1 1 1 1 1 2 1 3 4 3 5 9 9 8 4 2 1 2 4 1 2 5 2 3 6 7 7 7 7 7 5 5 6 6 6 6 6 6 6 6
1 1 0 2 4 4 2 1 1 1 2 1 2 2 1 1 0 1 1 2 3 2 2 2 2 1 1 2 2 3 4 4 2 1 1 1 1 1 3 4 4 4 5 3 2 1 1 2 1 1 2 4 3 2 2 3 2 4 7 10 10 9 4 2 2 3 3 4 3 3 3 7 10 10 9 9 8 8 8 8 7 6 6 6 6 6 6 5
1 1 1 1 1 2 1 1 2 1 1 1 1 1 1 1 0 1 1 2 2 2 2 3 3 1 0 1 2 3 4 4 3 2 1 1 2 2 3 3 3 7 8 5 3 1 1 2 3 2 1 4 5 4 2 3 3 6 8 10 11 10 5 1 3 2 1 4 4 3 7 10 12 13 12 10 9 9 9 8 8 8 7 7 7 8 8 7
1 1 0 1 0 0 1 1 2 2 2 0 1 1 1 2 2 2 1 1 2 2 1 2 5 5 1 1 2 2 2 2 3 2 1 1 1 2 2 1 2 7 6 4 3 2 1 1 2 2 1 1 3 4 2 2 3 4 8 11 12 10 7 4 3 5 4 4 2 5 11 9 9 14 13 10 9 9 9 8 8 8 8 8 9 9 9 9
1 2 1 1 0 1 0 2 1 2 2 1 1 1 1 2 3 1 1 1 2 4 3 2 4 6 2 0 2 2 0 1 2 1 1 1 1 2 2 1 2 4 4 3 4 2 1 0 2 1 1 1 2 1 2 1 0 2 8 12 12 9 8 6 5 7 6 6 4 5 10 5 6 13 13 9 9 8 8 8 8 9 9 9 9 10 9 9
1 1 0 1 1 1 1 1 0 2 1 1 1 1 1 1 2 2 1 2 2 2 2 3 3 3 3 3 4 4 1 1 2 1 0 0 1 1 1 1 1 3 5 3 2 2 1 0 1 1 3 2 3 3 2 3 3 4 7 12 12 9 8 7 7 7 7 6 2 7 9 6 6 11 12 11 9 9 9 9 9 8 8 9 10 10 10 10
2 0 1 0 1 1 1 1 1 1 1 1 1 2 2 2 2 2 2 1 0 1 1 4 4 1 2 5 6 3 2 3 2 1 2 2 1 1 0 1 1 2 4 3 2 3 3 1 1 1 4 4 1 4 4 4 6 6 3 8 10 8 6 6 5 6 6 4 2 7 7 6 9 12 13 12 11 11 11 10 9 8 8 9 10 10 11 12
3 0 1 0 0 1 1 1 1 1 1 1 1 2 2 2 2 2 3 1 0 1 1 3 3 0 1 3 4 1 2 4 3 2 1 2 2 1 0 1 0 1 2 2 1 1 2 1 0 1 3 3 1 3 3 3 5 6 1 4 6 6 4 2 3 4 5 4 1 1 1 5 11 13 13 12 12 11 10 8 8 8 9 9 10 11 12 13
Wind_Direction
345 343 341 339 339 338 336 334 331 331 330 327 325 321 319 318 316 316 315 316 319 319 322 324 325 325 324 323 321 319 324 319 315 303 254 262 260 228 218 183 176 171 163 165 163 152 135 134 135 141 144 143 170 154 176 199 200 235 283 313 325 312 302 298 269 190 130 141 148 152 146 135 136 127 119 120 109 110 105 91 88 87 97 109 119 131 139 145
341 340 339 338 336 335 333 332 331 329 327 324 323 320 319 316 314 314 313 316 317 318 322 324 326 324 322 324 323 326 330 322 312 286 266 270 271 219 205 185 172 173 165 162 164 154 144 149 148 153 153 146 162 167 177 181 185 230 281 312 330 323 326 332 287 165 141 145 141 141 139 138 139 134 143 143 129 124 110 105 107 103 109 117 124 136 142 146
339 337 337 336 335 333 331 330 329 328 325 323 322 321 319 316 316 314 312 315 316 319 321 323 327 325 321 321 325 333 331 324 300 276 299 291 247 218 199 185 175 179 176 172 173 167 157 154 155 155 151 152 157 180 189 175 182 223 257 297 350 345 341 11 41 142 125 132 134 133 132 134 136 135 157 147 138 143 133 132 130 124 132 134 134 142 146 149
337 335 335 334 333 333 332 330 329 327 324 322 321 321 319 318 316 312 314 315 317 319 320 324 325 323 322 318 325 337 326 305 278 305 6 30 177 196 193 177 175 183 181 176 176 171 155 147 154 155 146 155 155 190 201 184 177 187 224 284 351 352 354 37 86 116 110 117 127 130 129 129 132 133 148 142 143 160 159 154 145 142 144 142 142 147 150 152
336 336 338 336 333 332 331 329 327 325 323 322 320 320 319 317 315 315 318 317 317 319 323 323 321 322 319 321 336 343 323 244 73 0 359 13 80 178 182 171 175 183 178 174 166 156 147 145 153 153 156 158 160 190 209 191 187 218 238 271 299 321 6 63 106 114 114 111 113 128 134 134 132 128 146 148 153 158 158 162 146 146 147 145 145 148 152 154
336 338 342 340 335 333 331 329 327 325 323 321 320 321 319 316 317 322 320 317 318 321 326 321 319 322 315 339 354 349 319 242 0 338 328 330 294 172 173 171 172 176 174 165 146 144 145 152 166 154 160 170 182 199 189 179 194 246 251 285 293 301 39 97 121 120 126 123 121 132 130 134 132 125 141 138 52 107 124 144 140 142 145 142 144 148 154 156
336 339 344 343 339 336 332 330 329 327 325 322 323 324 322 320 322 322 316 315 318 324 325 320 322 319 317 0 3 8 293 280 329 329 324 319 243 168 169 170 167 167 168 158 142 148 147 159 175 152 162 170 187 215 249 195 201 237 262 305 330 110 101 115 124 126 127 122 124 129 124 132 134 132 136 66 75 119 125 136 135 137 143 140 143 151 155 156
337 341 343 342 343 341 335 332 331 328 326 325 327 330 328 325 319 312 312 314 319 328 324 322 335 331 64 36 342 332 241 292 336 338 333 324 175 165 167 166 164 160 159 162 155 146 146 161 169 152 179 173 152 200 223 230 205 223 256 287 134 110 100 112 124 128 117 111 122 123 117 114 122 131 120 82 122 133 132 139 137 139 146 144 146 151 154 156
340 343 342 342 346 345 340 336 335 333 330 329 332 336 329 318 310 309 314 318 321 333 332 334 18 91 76 46 308 303 222 340 352 353 349 160 162 164 165 163 167 163 149 158 159 152 151 164 167 163 194 172 158 189 212 253 201 209 243 212 132 112 108 122 128 129 117 118 133 123 115 105 118 129 106 106 143 138 137 141 141 147 152 151 149 152 157 157
344 345 343 344 347 347 344 340 340 339 335 334 335 331 320 308 306 314 318 321 325 332 339 25 85 95 70 38 229 283 81 10 2 5 31 158 159 160 161 162 170 169 146 143 154 156 159 171 168 162 174 140 159 281 230 259 14 266 226 139 106 107 112 127 128 125 117 115 132 127 122 110 119 185 134 135 149 143 141 143 146 153 156 156 152 155 162 161
347 348 345 345 347 348 347 344 344 343 338 333 328 318 308 305 305 314 317 317 325 329 339 69 104 115 101 32 232 239 84 19 5 13 138 156 158 159 158 159 168 171 153 135 151 160 159 165 180 203 168 125 209 275 190 297 338 235 160 104 88 100 104 118 123 114 107 102 102 117 114 95 88 242 148 143 156 151 145 147 153 157 159 160 156 157 165 166
350 350 348 348 349 349 349 347 347 346 339 330 321 314 306 307 308 308 310 314 324 1 31 37 124 121 66 290 221 243 285 334 356 29 144 153 155 159 158 157 166 174 164 152 162 169 158 130 184 189 132 70 234 274 265 322 314 184 152 111 99 113 101 84 91 76 226 146 107 104 110 139 174 159 132 144 158 154 148 150 158 160 160 163 162 161 168 170
354 353 352 350 351 350 350 349 349 347 337 330 320 312 306 305 307 308 308 306 308 103 88 136 156 133 13 260 232 278 295 297 340 62 145 152 149 148 160 164 165 173 172 174 176 177 171 124 44 115 89 316 266 325 303 309 215 165 149 122 126 130 97 62 81 180 202 138 82 51 165 183 177 149 136 153 160 154 151 156 162 164 162 167 169 167 171 176
358 357 354 351 351 351 352 351 351 346 335 328 314 306 307 301 304 318 316 293 314 115 124 129 148 141 297 269 273 343 326 259 319 128 155 158 138 121 143 166 163 150 148 165 178 188 194 170 16 56 163 317 335 314 299 107 152 154 139 138 145 148 145 120 175 181 171 129 73 7 282 190 169 152 144 159 165 160 156 163 169 167 165 170 174 176 176 181
1 358 354 351 351 352 353 354 354 350 337 320 305 301 297 299 315 330 166 213 76 108 120 114 112 217 281 278 286 341 335 230 357 160 173 167 142 118 134 154 157 151 132 110 134 179 196 188 317 263 192 298 286 298 107 113 135 155 151 167 180 146 163 227 203 195 194 140 125 61 305 200 161 154 147 163 171 169 163 168 175 171 170 172 175 180 179 182
2 359 354 350 351 354 355 356 357 357 345 319 301 299 289 312 351 111 119 113 119 118 121 111 68 317 274 316 339 346 356 44 34 65 181 178 159 131 134 137 136 144 147 107 89 120 161 173 182 305 336 193 250 301 130 133 139 178 236 183 169 157 165 199 189 220 232 143 146 208 247 47 149 153 142 163 177 177 173 174 179 175 173 176 176 180 180 181
2 360 354 349 351 355 356 358 0 2 355 335 310 304 306 18 108 109 97 108 125 131 137 129 31 314 266 301 338 31 14 358 36 69 169 182 169 137 129 120 115 119 116 94 86 112 140 162 178 166 85 139 253 232 176 171 159 183 220 170 155 163 168 160 154 207 213 169 164 201 243 17 131 159 148 157 176 182 184 180 182 181 176 179 180 181 182 183
1 359 353 348 349 353 355 358 2 7 4 356 0 82 89 99 106 81 86 115 126 161 175 194 255 255 231 301 339 340 314 312 27 66 147 158 153 139 129 113 118 120 110 107 107 139 150 155 199 178 167 155 190 214 192 180 181 176 184 171 142 162 181 179 153 171 187 185 172 189 224 281 143 166 159 157 170 184 191 186 185 187 183 182 184 186 186 187
359 357 353 348 348 353 355 357 5 19 16 27 88 108 94 84 102 89 97 118 142 236 272 216 237 296 302 303 306 305 309 303 302 136 140 144 143 124 109 111 118 123 135 155 164 176 162 147 171 194 195 181 188 214 213 28 10 155 168 169 151 164 183 184 159 158 173 178 182 193 202 180 171 176 169 162 165 181 191 189 189 192 191 189 188 190 191 193
357 354 353 349 348 352 354 355 10 35 26 56 120 119 85 42 61 84 120 188 221 255 291 230 193 275 287 292 302 313 322 313 333 145 149 150 142 117 94 104 113 126 149 158 157 180 195 174 189 205 191 169 188 215 147 69 74 117 151 172 188 188 140 165 168 166 177 181 188 194 184 173 179 179 176 165 161 176 189 188 189 194 197 196 194 193 194 198
355 352 351 350 349 351 353 354 16 47 34 79 147 95 78 6 343 333 318 257 227 224 251 244 203 264 274 281 289 326 355 79 69 112 153 153 148 134 108 134 142 147 147 134 126 137 212 196 197 201 181 160 218 191 150 118 79 86 133 165 189 192 117 88 166 168 184 199 187 186 188 189 179 173 178 169 168 184 191 186 188 195 199 199 197 196 196 199
354 350 348 351 351 350 351 355 25 46 35 88 151 112 152 310 306 276 283 300 271 213 231 247 258 267 269 270 258 246 49 125 89 105 154 154 161 164 147 169 164 140 126 139 139 146 194 209 198 166 138 140 67 132 164 186 154 113 138 157 152 153 119 66 97 166 183 211 196 187 197 199 183 176 183 183 184 190 193 189 189 194 196 197 197 196 196 196
353 349 346 350 353 350 350 1 40 23 21 73 164 149 147 345 313 226 205 308 290 247 193 215 230 250 269 280 213 181 181 159 130 162 175 162 149 177 156 154 151 135 144 167 171 168 185 216 193 142 142 168 130 128 166 166 178 186 202 196 146 141 155 86 102 168 175 215 220 194 198 200 188 188 193 200 198 190 192 193 191 196 198 198 199 199 198 197
351 348 345 347 354 350 349 7 66 5 0 324 198 137 356 352 346 194 194 302 283 286 247 213 234 230 272 332 164 176 184 151 155 170 180 166 121 152 166 143 144 146 155 171 175 180 176 111 123 139 158 182 168 153 183 190 193 203 211 226 177 141 197 83 127 155 160 199 219 186 192 214 204 206 204 201 203 197 191 191 194 197 201 200 200 204 204 201
349 346 343 345 353 353 350 8 122 350 347 297 216 350 348 349 355 171 189 310 218 303 238 170 235 208 251 250 166 209 264 116 215 155 173 170 138 144 157 138 170 162 156 157 166 187 187 128 128 141 158 179 175 174 204 218 219 216 210 223 220 177 140 119 138 147 159 213 198 185 208 222 198 213 213 192 196 204 194 196 201 192 193 202 199 203 206 205
346 344 342 341 347 355 356 44 337 340 337 253 288 332 337 340 339 160 187 324 89 358 338 130 301 132 351 155 166 229 188 106 358 130 170 176 149 138 155 151 215 166 165 156 155 194 172 139 147 150 157 169 179 187 196 216 231 234 208 202 197 191 155 142 154 165 180 200 181 197 235 258 179 211 216 197 195 204 200 205 208 196 192 205 202 200 202 205
343 341 339 338 339 347 353 272 325 335 325 251 321 324 329 331 162 159 243 349 81 5 310 310 349 27 353 328 215 243 163 67 53 116 167 186 167 51 167 168 182 152 157 162 173 186 139 142 150 145 155 170 189 195 176 195 222 222 69 170 180 191 178 161 172 194 192 99 150 198 242 282 240 207 202 198 198 205 207 211 211 202 198 203 205 201 199 203
341 337 335 335 333 334 327 302 319 313 245 311 316 320 324 318 153 165 274 78 53 340 280 306 327 329 315 307 12 8 50 13 125 118 40 180 167 319 192 190 189 150 140 193 190 151 147 174 172 161 173 196 201 183 163 186 227 195 95 123 169 196 195 173 184 208 182 182 188 195 212 252 250 126 168 193 201 212 213 213 213 207 202 200 203 206 201 201
340 334 330 330 326 325 315 308 309 259 267 311 317 322 328 140 146 187 232 91 11 312 207 299 327 336 330 347 26 18 3 3 50 38 9 139 115 7 180 185 164 130 103 236 205 139 111 202 184 176 198 217 198 171 166 184 214 141 128 101 99 161 188 176 198 199 164 234 241 190 193 234 249 150 161 187 207 223 218 214 215 212 207 199 195 204 204 199
337 329 323 323 321 321 314 308 296 265 298 316 321 327 88 136 149 253 59 49 336 285 206 304 334 335 337 15 30 11 4 9 12 21 51 91 55 44 77 120 105 126 91 15 227 157 38 106 171 191 206 212 187 163 177 191 187 124 141 136 92 102 134 153 190 187 183 243 252 183 189 221 261 163 168 186 205 224 216 212 212 212 212 203 192 198 203 200
335 325 315 314 311 301 300 309 301 304 315 320 325 336 140 135 14 80 57 25 300 317 337 345 351 346 9 103 61 17 35 26 356 24 80 56 60 55 33 164 118 138 136 174 209 345 317 192 178 216 206 173 154 131 173 224 186 126 168 177 141 117 128 139 153 191 217 232 327 182 185 203 243 213 163 194 201 212 214 209 204 205 210 206 195 193 199 201
332 319 304 299 290 266 256 291 309 316 319 321 334 26 164 80 45 63 16 332 321 347 353 339 357 352 324 79 47 8 14 42 6 37 78 54 71 60 16 5 113 205 196 204 195 191 244 217 183 251 209 178 183 166 134 159 194 202 206 192 187 174 162 180 182 195 221 225 16 191 181 195 247 257 94 220 232 240 231 217 206 202 203 202 194 189 193 196
330 312 293 284 274 267 274 296 308 317 321 320 333 88 112 79 59 3 285 319 358 6 3 318 341 340 304 72 43 0 27 44 357 26 59 35 72 81 70 46 13 255 207 179 220 215 222 204 167 212 212 187 197 203 192 170 181 194 193 194 197 184 181 193 178 173 221 225 30 159 177 209 248 217 27 303 276 267 244 229 217 203 199 198 191 187 185 182
331 307 284 270 275 291 298 303 308 314 323 335 124 97 63 75 59 295 281 305 316 323 11 321 319 352 31 55 20 348 54 51 6 23 58 59 73 74 59 48 37 331 242 180 216 232 231 221 184 195 190 165 189 217 223 176 173 186 184 195 207 198 197 195 180 183 197 195 147 153 179 241 237 121 355 317 304 288 246 227 219 206 199 195 188 185 181 173
340 318 282 271 342 355 337 325 323 321 331 24 81 55 69 79 276 263 286 290 283 306 351 28 347 18 61 57 26 4 37 53 29 31 51 63 66 43 11 17 22 23 243 216 172 158 251 265 205 197 146 170 191 203 184 159 174 177 169 195 208 207 198 162 183 191 169 159 159 171 206 287 235 152 356 331 333 345 247 211 209 205 194 188 184 183 180 172
19 63 60 42 24 20 23 10 6 352 348 53 71 58 72 31 265 192 268 309 319 319 314 7 20 29 53 51 43 26 17 40 40 31 54 61 59 33 349 316 2 16 346 264 172 157 253 234 167 256 192 198 213 180 170 196 187 139 180 199 181 190 217 184 149 111 162 222 177 180 227 260 190 199 54 20 23 38 49 189 195 197 186 185 186 184 180 172
44 93 69 31 11 8 85 65 16 345 13 77 80 72 2 283 201 201 276 317 307 332 332 14 18 10 24 47 32 5 3 21 7 19 69 44 38 25 339 306 346 0 343 293 231 126 271 259 256 336 175 175 245 162 181 216 173 145 191 176 113 58 256 241 204 165 200 223 177 186 231 235 218 210 89 45 40 46 53 131 173 187 185 189 192 189 180 169
28 114 70 15 2 38 119 88 354 342 49 69 70 87 274 324 229 234 284 323 253 72 56 59 30 353 341 57 45 352 338 342 0 22 85 29 46 35 335 330 147 18 9 256 247 98 254 272 25 139 207 69 74 181 180 194 215 282 207 161 147 197 196 175 221 205 198 213 178 182 229 245 233 217 98 72 48 47 73 111 161 181 184 189 191 191 181 165
31 124 58 359 0 113 132 74 359 6 70 65 55 91 300 295 276 257 266 329 243 72 58 52 14 40 35 23 44 356 354 34 37 22 88 22 41 77 351 343 272 352 16 288 268 92 264 294 106 153 266 323 119 195 197 181 185 274 173 182 204 253 194 177 205 221 208 211 193 182 200 226 221 152 109 124 73 56 111 112 142 170 177 184 183 188 182 160
38 94 57 351 0 134 142 39 24 33 66 63 26 84 344 296 297 316 289 228 303 13 61 146 288 51 86 37 49 31 21 45 63 44 44 15 61 105 358 328 305 334 349 335 10 70 248 300 309 317 295 229 168 163 259 191 173 192 194 193 198 221 212 191 191 256 238 207 194 207 213 191 116 103 138 140 90 78 108 103 98 131 150 166 171 172 163 151
24 63 83 346 347 161 140 35 47 40 74 89 321 261 325 330 336 349 342 344 57 22 55 127 102 54 96 82 50 37 35 50 42 55 70 35 41 53 44 52 302 311 312 320 36 7 294 137 305 316 343 95 101 63 342 319 321 250 202 197 204 199 188 198 198 180 268 230 197 225 226 147 99 152 167 130 102 107 123 120 113 121 130 142 156 152 143 149
34 79 51 346 318 196 56 41 82 38 102 85 36 266 308 351 3 355 352 5 35 47 55 70 78 63 53 59 57 40 56 55 24 35 64 39 22 318 5 13 284 268 301 301 13 344 316 121 308 298 322 346 8 49 41 138 136 76 55 31 347 257 211 213 209 171 166 209 83 248 244 124 109 189 164 129 124 121 130 133 127 126 128 131 142 144 140 147
53 97 21 5 348 204 0 50 150 20 54 1 9 238 308 358 11 354 3 12 14 20 49 49 35 51 44 26 109 62 40 48 34 31 46 47 61 277 311 333 305 224 336 352 64 333 263 191 335 311 305 280 213 110 109 123 127 86 44 24 0 309 288 260 260 178 181 186 160 201 226 146 156 196 155 138 138 125 125 134 130 125 121 124 134 139 142 148
28 222 326 9 34 202 280 42 102 21 18 333 50 63 18 38 31 9 16 20 14 9 31 55 33 21 39 38 67 55 5 25 74 31 26 106 53 329 312 333 338 349 26 356 317 290 260 325 323 320 138 178 156 126 123 74 43 46 23 8 358 346 317 231 84 171 202 187 181 216 223 131 149 168 158 154 146 130 120 123 124 121 116 116 119 121 130 141
357 176 268 359 33 80 74 59 124 116 66 40 63 48 22 66 41 4 26 27 20 12 18 57 18 0 46 79 81 60 16 27 77 23 1 85 335 322 338 340 341 0 16 333 302 296 297 59 274 229 121 127 102 73 43 354 8 23 7 2 4 3 336 228 150 193 212 172 173 224 223 121 151 163 164 165 146 132 127 116 112 116 119 119 115 115 123 131
326 143 275 347 36 54 68 47 14 125 134 103 91 47 15 72 32 310 87 49 21 23 40 32 337 312 68 72 86 62 23 20 58 86 77 1 312 322 332 329 336 346 345 357 11 310 173 97 20 277 131 128 126 87 356 317 352 26 8 4 5 5 351 260 220 206 183 153 184 225 131 142 172 178 172 167 152 140 135 124 118 124 124 119 115 114 115 116
17 124 33 1 60 46 86 72 21 75 151 167 136 65 6 1 308 339 56 61 30 29 62 49 18 13 78 62 97 76 20 14 37 48 44 327 300 296 297 298 339 338 334 347 8 347 164 79 9 342 92 133 151 160 300 331 54 46 15 10 10 8 7 269 253 298 126 178 202 178 151 162 180 182 175 168 159 146 137 130 128 133 131 124 117 110 102 94
26 133 51 322 250 94 84 26 18 63 109 126 136 100 17 38 52 37 23 58 46 11 26 60 26 18 355 246 113 86 4 28 46 15 354 343 327 325 315 310 353 342 340 359 10 14 114 56 0 338 333 56 155 176 242 327 86 66 28 21 17 13 17 9 334 345 331 270 262 161 168 175 175 173 169 164 160 148 137 132 129 131 130 124 118 110 102 95
35 106 122 336 319 141 37 336 3 95 91 70 85 88 93 80 83 79 333 17 44 8 15 69 21 10 14 24 102 96 341 87 78 20 322 1 355 0 4 1 5 358 5 26 24 20 167 64 2 313 254 327 343 257 229 247 155 45 30 24 21 25 32 28 11 2 342 315 314 167 161 143 148 161 156 150 153 142 133 133 129 132 134 127 117 108 100 95
28 69 31 26 78 80 22 345 128 122 71 25 88 88 74 88 108 134 1 22 59 10 27 99 72 16 32 56 85 104 128 162 97 61 208 220 11 44 5 312 346 11 11 23 18 346 325 67 24 332 218 228 342 335 258 252 293 329 20 25 19 22 31 28 17 6 351 331 295 159 145 121 130 143 138 139 144 137 137 138 131 133 137 128 115 105 102 98
7 308 322 148 107 5 354 38 57 136 113 51 140 150 156 163 152 131 89 20 42 47 66 122 126 59 26 57 77 100 176 200 204 295 237 233 287 299 346 310 262 334 3 19 356 347 0 20 104 143 206 207 3 346 302 301 306 299 358 38 28 21 27 26 22 11 351 334 170 155 151 145 143 139 137 140 142 142 144 141 136 141 143 130 114 104 106 104
0 168 331 260 154 0 351 98 53 160 165 113 145 164 163 164 172 133 105 83 297 39 64 164 156 116 30 72 70 47 228 222 247 303 253 248 283 268 302 64 196 301 347 17 356 0 10 341 177 186 215 191 75 350 334 358 316 285 245 80 57 47 45 31 31 28 4 339 247 191 128 144 146 142 139 140 144 147 145 140 140 144 139 126 116 111 111 106